Time,TemperatureF,DewpointF,PressureIn,WindDirection,WindDirectionDegrees,WindSpeedMPH,WindSpeedGustMPH,Humidity,HourlyPrecipIn,Conditions,Clouds,dailyrainin,SoftwareType,DateUTC
2013-01-08 00:04:00,24.8,12.1,29.90,ESE,119,0.0,0.0,58,0.00,,---,0.00,VWS V14.00,2013-01-08 07:04:00,
2013-01-08 00:09:00,24.7,12.0,29.90,ESE,120,0.0,0.0,58,0.00,,---,0.00,VWS V14.00,2013-01-08 07:09:00,
2013-01-08 00:14:00,24.7,12.0,29.90,ESE,120,0.0,0.0,58,0.00,,---,0.00,VWS V14.00,2013-01-08 07:14:00,
2013-01-08 00:19:00,24.6,11.9,29.89,ESE,120,0.0,0.0,58,0.00,,---,0.00,VWS V14.00,2013-01-08 07:19:00,
2013-01-08 00:24:00,24.5,11.9,29.89,ESE,119,0.0,0.0,58,0.00,,---,0.00,VWS V14.00,2013-01-08 07:24:00,
2013-01-08 00:29:00,24.4,11.8,29.90,ESE,120,0.0,0.0,58,0.00,,---,0.00,VWS V14.00,2013-01-08 07:29:00,
2013-01-08 00:34:00,24.3,11.7,29.90,ESE,120,0.0,0.0,58,0.00,,---,0.00,VWS V14.00,2013-01-08 07:34:00,
2013-01-08 00:40:00,24.2,11.6,29.90,ESE,120,0.0,0.0,58,0.00,,---,0.00,VWS V14.00,2013-01-08 07:40:00,
2013-01-08 00:45:00,24.0,11.4,29.89,ESE,119,0.0,0.0,58,0.00,,---,0.00,VWS V14.00,2013-01-08 07:45:00,
2013-01-08 00:50:00,24.0,11.4,29.90,ESE,120,0.0,0.0,58,0.00,,---,0.00,VWS V14.00,2013-01-08 07:50:00,
2013-01-08 00:56:00,24.0,11.4,29.90,ESE,120,0.0,0.0,58,0.00,,---,0.00,VWS V14.00,2013-01-08 07:56:00,
2013-01-08 01:01:00,23.9,11.3,29.90,ESE,119,0.0,0.0,58,0.00,,---,0.00,VWS V14.00,2013-01-08 08:01:00,
2013-01-08 01:07:00,24.1,11.5,29.87,ESE,122,0.0,2.0,58,0.00,,---,0.00,VWS V14.00,2013-01-08 08:07:00,
2013-01-08 01:12:00,25.0,11.9,29.88,SE,125,0.0,1.0,57,0.00,,---,0.00,VWS V14.00,2013-01-08 08:12:00,
2013-01-08 01:17:00,25.7,11.8,29.86,SE,125,0.0,0.0,55,0.00,,---,0.00,VWS V14.00,2013-01-08 08:17:00,
2013-01-08 01:23:00,25.9,11.6,29.87,SE,125,0.0,0.0,54,0.00,,---,0.00,VWS V14.00,2013-01-08 08:23:00,
2013-01-08 01:29:00,26.1,11.7,29.87,SE,125,0.0,0.0,54,0.00,,---,0.00,VWS V14.00,2013-01-08 08:29:00,
2013-01-08 01:34:00,26.3,12.3,29.86,SE,125,0.0,0.0,55,0.00,,---,0.00,VWS V14.00,2013-01-08 08:34:00,
2013-01-08 01:40:00,26.5,12.1,29.86,SE,125,0.0,0.0,54,0.00,,---,0.00,VWS V14.00,2013-01-08 08:40:00,
2013-01-08 01:45:00,26.7,11.9,29.87,SE,125,0.0,1.0,53,0.00,,---,0.00,VWS V14.00,2013-01-08 08:45:00,
2013-01-08 01:51:00,27.0,12.2,29.88,SE,125,0.0,0.0,53,0.00,,---,0.00,VWS V14.00,2013-01-08 08:51:00,
2013-01-08 01:56:00,27.2,12.4,29.88,SE,125,0.0,0.0,53,0.00,,---,0.00,VWS V14.00,2013-01-08 08:56:00,
2013-01-08 02:01:00,27.3,12.4,29.89,SE,125,0.0,0.0,53,0.00,,---,0.00,VWS V14.00,2013-01-08 09:01:00,
2013-01-08 02:07:00,27.6,12.7,29.88,SE,125,0.0,1.0,53,0.00,,---,0.00,VWS V14.00,2013-01-08 09:07:00,
2013-01-08 02:12:00,27.8,12.9,29.88,SE,125,0.0,0.0,53,0.00,,---,0.00,VWS V14.00,2013-01-08 09:12:00,
2013-01-08 02:18:00,28.1,12.3,29.88,SE,125,0.0,0.0,51,0.00,,---,0.00,VWS V14.00,2013-01-08 09:18:00,
2013-01-08 02:23:00,28.2,12.4,29.88,SE,125,0.0,0.0,51,0.00,,---,0.00,VWS V14.00,2013-01-08 09:23:00,
2013-01-08 02:28:00,28.4,12.1,29.88,SE,125,0.0,0.0,50,0.00,,---,0.00,VWS V14.00,2013-01-08 09:28:00,
2013-01-08 02:33:00,28.7,12.0,29.88,SE,125,0.0,0.0,49,0.00,,---,0.00,VWS V14.00,2013-01-08 09:33:00,
2013-01-08 02:38:00,28.8,12.1,29.88,SE,125,0.0,0.0,49,0.00,,---,0.00,VWS V14.00,2013-01-08 09:38:00,
2013-01-08 02:43:00,29.3,12.1,29.87,SE,125,0.0,0.0,48,0.00,,---,0.00,VWS V14.00,2013-01-08 09:43:00,
2013-01-08 02:48:00,29.7,11.9,29.86,SE,125,0.0,0.0,47,0.00,,---,0.00,VWS V14.00,2013-01-08 09:48:00,
2013-01-08 02:53:00,29.9,12.1,29.86,SE,125,0.0,1.0,47,0.00,,---,0.00,VWS V14.00,2013-01-08 09:53:00,
2013-01-08 02:58:00,30.1,12.3,29.85,SE,125,0.0,0.0,47,0.00,,---,0.00,VWS V14.00,2013-01-08 09:58:00,
2013-01-08 03:03:00,30.3,12.0,29.88,SE,125,0.0,0.0,46,0.00,,---,0.00,VWS V14.00,2013-01-08 10:03:00,
2013-01-08 03:08:00,30.6,11.3,29.87,SE,126,0.0,1.0,44,0.00,,---,0.00,VWS V14.00,2013-01-08 10:08:00,
2013-01-08 03:13:00,31.1,10.7,29.86,SE,141,0.0,3.0,42,0.00,,---,0.00,VWS V14.00,2013-01-08 10:13:00,
2013-01-08 03:18:00,31.6,10.1,29.86,SE,145,0.0,2.0,40,0.00,,---,0.00,VWS V14.00,2013-01-08 10:18:00,
2013-01-08 03:23:00,32.4,10.2,29.86,SSW,194,0.0,0.0,39,0.00,,---,0.00,VWS V14.00,2013-01-08 10:23:00,
2013-01-08 03:28:00,32.7,11.1,29.85,SSW,194,0.0,0.0,40,0.00,,---,0.00,VWS V14.00,2013-01-08 10:28:00,
2013-01-08 03:33:00,32.7,10.5,29.86,SSW,194,0.0,0.0,39,0.00,,---,0.00,VWS V14.00,2013-01-08 10:33:00,
2013-01-08 03:38:00,32.7,11.1,29.86,SSW,194,0.0,0.0,40,0.00,,---,0.00,VWS V14.00,2013-01-08 10:38:00,
2013-01-08 03:43:00,32.7,11.1,29.86,SSW,194,0.0,0.0,40,0.00,,---,0.00,VWS V14.00,2013-01-08 10:43:00,
2013-01-08 03:48:00,32.5,10.9,29.86,SSW,194,0.0,0.0,40,0.00,,---,0.00,VWS V14.00,2013-01-08 10:48:00,
2013-01-08 03:54:00,32.4,10.8,29.87,SSW,194,0.0,0.0,40,0.00,,---,0.00,VWS V14.00,2013-01-08 10:54:00,
2013-01-08 03:59:00,32.3,10.1,29.87,SSW,194,0.0,1.0,39,0.00,,---,0.00,VWS V14.00,2013-01-08 10:59:00,
2013-01-08 04:04:00,32.7,9.3,29.90,SW,218,5.0,8.0,37,0.00,,---,0.00,VWS V14.00,2013-01-08 11:04:00,
2013-01-08 04:09:00,33.7,9.6,29.89,SSW,209,0.0,5.0,36,0.00,,---,0.00,VWS V14.00,2013-01-08 11:09:00,
2013-01-08 04:14:00,34.2,9.4,29.90,SSW,202,0.0,4.0,35,0.00,,---,0.00,VWS V14.00,2013-01-08 11:14:00,
2013-01-08 04:19:00,34.3,10.1,29.90,SSW,202,0.0,0.0,36,0.00,,---,0.00,VWS V14.00,2013-01-08 11:19:00,
2013-01-08 04:24:00,34.1,10.6,29.90,SSW,202,0.0,1.0,37,0.00,,---,0.00,VWS V14.00,2013-01-08 11:24:00,
2013-01-08 04:29:00,33.8,11.5,29.91,SSW,202,0.0,0.0,39,0.00,,---,0.00,VWS V14.00,2013-01-08 11:29:00,
2013-01-08 04:34:00,33.6,11.3,29.91,SSW,202,0.0,0.0,39,0.00,,---,0.00,VWS V14.00,2013-01-08 11:34:00,
2013-01-08 04:39:00,33.3,11.6,29.91,SSW,202,0.0,0.0,40,0.00,,---,0.00,VWS V14.00,2013-01-08 11:39:00,
2013-01-08 04:44:00,33.1,11.4,29.91,SSW,202,0.0,0.0,40,0.00,,---,0.00,VWS V14.00,2013-01-08 11:44:00,
2013-01-08 04:49:00,32.6,11.5,29.90,SSW,202,0.0,1.0,41,0.00,,---,0.00,VWS V14.00,2013-01-08 11:49:00,
2013-01-08 04:54:00,31.9,11.4,29.91,SSW,202,0.0,0.0,42,0.00,,---,0.00,VWS V14.00,2013-01-08 11:54:00,
2013-01-08 04:59:00,31.5,11.6,29.92,SSW,202,0.0,0.0,43,0.00,,---,0.00,VWS V14.00,2013-01-08 11:59:00,
2013-01-08 05:04:00,31.2,11.3,29.95,SSW,202,0.0,0.0,43,0.00,,---,0.00,VWS V14.00,2013-01-08 12:04:00,
2013-01-08 05:09:00,31.1,11.2,29.95,SSW,202,0.0,0.0,43,0.00,,---,0.00,VWS V14.00,2013-01-08 12:09:00,
2013-01-08 05:14:00,31.2,11.3,29.95,SSW,202,0.0,1.0,43,0.00,,---,0.00,VWS V14.00,2013-01-08 12:14:00,
2013-01-08 05:20:00,31.5,12.1,29.95,SSW,202,0.0,0.0,44,0.00,,---,0.00,VWS V14.00,2013-01-08 12:20:00,
2013-01-08 05:25:00,32.1,13.2,29.95,SSW,202,1.0,1.0,45,0.00,,---,0.00,VWS V14.00,2013-01-08 12:25:00,
2013-01-08 05:30:00,32.8,13.8,29.94,SSW,202,0.0,0.0,45,0.00,,---,0.00,VWS V14.00,2013-01-08 12:30:00,
2013-01-08 05:35:00,33.2,14.7,29.94,SSW,202,0.0,2.0,46,0.00,,---,0.00,VWS V14.00,2013-01-08 12:35:00,
2013-01-08 05:40:00,33.7,14.6,29.95,SSW,202,0.0,1.0,45,0.00,,---,0.00,VWS V14.00,2013-01-08 12:40:00,
2013-01-08 05:45:00,34.7,15.6,29.94,SSW,202,0.0,3.0,45,0.00,,---,0.00,VWS V14.00,2013-01-08 12:45:00,
2013-01-08 05:50:00,35.5,15.8,29.93,SSW,202,0.0,1.0,44,0.00,,---,0.00,VWS V14.00,2013-01-08 12:50:00,
2013-01-08 05:55:00,36.2,15.9,29.94,SSW,202,0.0,1.0,43,0.00,,---,0.00,VWS V14.00,2013-01-08 12:55:00,
2013-01-08 06:00:00,36.7,15.8,29.93,SSW,202,0.0,0.0,42,0.00,,---,0.00,VWS V14.00,2013-01-08 13:00:00,
2013-01-08 06:05:00,37.1,15.6,29.94,SSW,202,0.0,1.0,41,0.00,,---,0.00,VWS V14.00,2013-01-08 13:05:00,
2013-01-08 06:10:00,37.6,15.5,29.95,SSW,202,0.0,0.0,40,0.00,,---,0.00,VWS V14.00,2013-01-08 13:10:00,
2013-01-08 06:15:00,37.9,15.8,29.94,SSW,202,0.0,0.0,40,0.00,,---,0.00,VWS V14.00,2013-01-08 13:15:00,
2013-01-08 06:20:00,38.2,15.4,29.95,SSW,202,0.0,0.0,39,0.00,,---,0.00,VWS V14.00,2013-01-08 13:20:00,
2013-01-08 06:25:00,38.3,15.5,29.95,SSW,202,0.0,0.0,39,0.00,,---,0.00,VWS V14.00,2013-01-08 13:25:00,
2013-01-08 06:30:00,38.3,14.9,29.94,SSW,202,0.0,0.0,38,0.00,,---,0.00,VWS V14.00,2013-01-08 13:30:00,
2013-01-08 06:35:00,38.2,14.8,29.95,SSW,202,0.0,0.0,38,0.00,,---,0.00,VWS V14.00,2013-01-08 13:35:00,
2013-01-08 06:40:00,37.9,15.2,29.95,SSW,202,0.0,0.0,39,0.00,,---,0.00,VWS V14.00,2013-01-08 13:40:00,
2013-01-08 06:45:00,37.1,15.0,29.96,SSW,202,0.0,1.0,40,0.00,,---,0.00,VWS V14.00,2013-01-08 13:45:00,
2013-01-08 06:50:00,36.7,14.1,29.96,SSW,201,0.0,0.0,39,0.00,,---,0.00,VWS V14.00,2013-01-08 13:50:00,
2013-01-08 06:55:00,36.6,14.0,29.96,SSW,201,0.0,0.0,39,0.00,,---,0.00,VWS V14.00,2013-01-08 13:55:00,
2013-01-08 07:00:00,36.4,13.8,29.97,SSW,200,0.0,0.0,39,0.00,,---,0.00,VWS V14.00,2013-01-08 14:00:00,
2013-01-08 07:05:00,36.2,13.1,29.99,SSW,201,0.0,0.0,38,0.00,,---,0.00,VWS V14.00,2013-01-08 14:05:00,
2013-01-08 07:10:00,36.0,12.9,29.98,SSW,200,0.0,0.0,38,0.00,,---,0.00,VWS V14.00,2013-01-08 14:10:00,
2013-01-08 07:15:00,35.5,13.0,29.99,SSW,200,0.0,0.0,39,0.00,,---,0.00,VWS V14.00,2013-01-08 14:15:00,
2013-01-08 07:20:00,35.1,12.6,29.99,SSW,201,0.0,0.0,39,0.00,,---,0.00,VWS V14.00,2013-01-08 14:20:00,
2013-01-08 07:25:00,34.7,12.9,29.98,SSW,201,0.0,0.0,40,0.00,,---,0.00,VWS V14.00,2013-01-08 14:25:00,
2013-01-08 07:30:00,34.4,13.1,30.00,SSW,201,0.0,1.0,41,0.00,,---,0.00,VWS V14.00,2013-01-08 14:30:00,
2013-01-08 07:35:00,34.2,13.0,30.01,SSW,200,0.0,0.0,41,0.00,,---,0.00,VWS V14.00,2013-01-08 14:35:00,
2013-01-08 07:40:00,34.0,13.3,30.01,SSW,201,0.0,0.0,42,0.00,,---,0.00,VWS V14.00,2013-01-08 14:40:00,
2013-01-08 07:45:00,33.8,13.1,30.02,SSW,201,0.0,0.0,42,0.00,,---,0.00,VWS V14.00,2013-01-08 14:45:00,
2013-01-08 07:50:00,33.6,14.0,30.02,SSW,201,0.0,0.0,44,0.00,,---,0.00,VWS V14.00,2013-01-08 14:50:00,
2013-01-08 07:55:00,33.4,14.4,30.03,SSW,200,0.0,0.0,45,0.00,,---,0.00,VWS V14.00,2013-01-08 14:55:00,
2013-01-08 08:00:00,35.1,15.4,30.02,SSW,201,0.0,0.0,44,0.00,,---,0.00,VWS V14.00,2013-01-08 15:00:00,
2013-01-08 08:05:00,36.6,15.7,30.03,SSW,201,0.0,1.0,42,0.00,,---,0.00,VWS V14.00,2013-01-08 15:05:00,
2013-01-08 08:10:00,38.6,15.8,30.02,SSW,200,0.0,1.0,39,0.00,,---,0.00,VWS V14.00,2013-01-08 15:10:00,
2013-01-08 08:15:00,39.3,17.0,30.02,SSW,200,0.0,0.0,40,0.00,,---,0.00,VWS V14.00,2013-01-08 15:15:00,
2013-01-08 08:20:00,39.3,17.0,30.01,SSW,201,0.0,0.0,40,0.00,,---,0.00,VWS V14.00,2013-01-08 15:20:00,
2013-01-08 08:25:00,39.9,17.0,30.02,SSW,201,0.0,0.0,39,0.00,,---,0.00,VWS V14.00,2013-01-08 15:25:00,
2013-01-08 08:30:00,40.0,17.6,30.02,SSW,200,0.0,0.0,40,0.00,,---,0.00,VWS V14.00,2013-01-08 15:30:00,
2013-01-08 08:35:00,40.5,16.9,30.03,SSW,201,0.0,0.0,38,0.00,,---,0.00,VWS V14.00,2013-01-08 15:35:00,
2013-01-08 08:40:00,41.0,17.4,30.02,SSW,201,0.0,0.0,38,0.00,,---,0.00,VWS V14.00,2013-01-08 15:40:00,
2013-01-08 08:45:00,42.0,17.6,30.02,SSW,200,0.0,0.0,37,0.00,,---,0.00,VWS V14.00,2013-01-08 15:45:00,
2013-01-08 08:50:00,42.2,17.8,30.02,SSW,200,0.0,0.0,37,0.00,,---,0.00,VWS V14.00,2013-01-08 15:50:00,
2013-01-08 08:55:00,42.2,17.8,30.02,SSW,201,0.0,0.0,37,0.00,,---,0.00,VWS V14.00,2013-01-08 15:55:00,
2013-01-08 09:00:00,42.3,17.9,30.03,SSW,201,0.0,0.0,37,0.00,,---,0.00,VWS V14.00,2013-01-08 16:00:00,
2013-01-08 09:05:00,42.4,18.6,30.04,SSW,201,0.0,0.0,38,0.00,,---,0.00,VWS V14.00,2013-01-08 16:05:00,
2013-01-08 09:10:00,43.1,18.0,30.04,SSW,201,0.0,0.0,36,0.00,,---,0.00,VWS V14.00,2013-01-08 16:10:00,
2013-01-08 09:15:00,43.8,18.0,30.02,SSW,201,0.0,0.0,35,0.00,,---,0.00,VWS V14.00,2013-01-08 16:15:00,
2013-01-08 09:20:00,44.4,18.5,30.02,SSW,201,0.0,0.0,35,0.00,,---,0.00,VWS V14.00,2013-01-08 16:20:00,
2013-01-08 09:25:00,45.3,18.6,30.03,SSW,200,0.0,0.0,34,0.00,,---,0.00,VWS V14.00,2013-01-08 16:25:00,
2013-01-08 09:30:00,46.3,18.1,30.01,SW,217,0.0,0.0,32,0.00,,---,0.00,VWS V14.00,2013-01-08 16:30:00,
2013-01-08 09:35:00,46.9,17.9,30.01,SSW,211,0.0,2.0,31,0.00,,---,0.00,VWS V14.00,2013-01-08 16:35:00,
2013-01-08 09:40:00,47.6,18.5,30.00,South,175,1.0,4.0,31,0.00,,---,0.00,VWS V14.00,2013-01-08 16:40:00,
2013-01-08 09:45:00,48.1,18.1,30.00,SW,219,3.0,4.0,30,0.00,,---,0.00,VWS V14.00,2013-01-08 16:45:00,
2013-01-08 09:50:00,48.7,18.7,30.00,SSW,205,1.0,2.0,30,0.00,,---,0.00,VWS V14.00,2013-01-08 16:50:00,
2013-01-08 09:55:00,49.2,19.1,30.00,South,190,1.0,2.0,30,0.00,,---,0.00,VWS V14.00,2013-01-08 16:55:00,
2013-01-08 10:00:00,49.7,18.8,29.99,South,190,0.0,1.0,29,0.00,,---,0.00,VWS V14.00,2013-01-08 17:00:00,
2013-01-08 10:05:00,49.8,18.8,30.00,SW,234,4.0,6.0,29,0.00,,---,0.00,VWS V14.00,2013-01-08 17:05:00,
2013-01-08 10:11:00,50.1,19.1,30.00,SW,234,0.0,1.0,29,0.00,,---,0.00,VWS V14.00,2013-01-08 17:11:00,
2013-01-08 10:16:00,50.5,19.5,30.00,WSW,238,0.0,1.0,29,0.00,,---,0.00,VWS V14.00,2013-01-08 17:16:00,
2013-01-08 10:21:00,50.7,18.8,30.01,East,93,0.0,3.0,28,0.00,,---,0.00,VWS V14.00,2013-01-08 17:21:00,
2013-01-08 10:26:00,50.9,19.0,30.01,South,175,0.0,1.0,28,0.00,,---,0.00,VWS V14.00,2013-01-08 17:26:00,
2013-01-08 10:31:00,51.1,19.1,30.01,NNW,340,0.0,2.0,28,0.00,,---,0.00,VWS V14.00,2013-01-08 17:31:00,
2013-01-08 10:36:00,51.5,19.5,29.99,NNE,22,1.0,1.0,28,0.00,,---,0.00,VWS V14.00,2013-01-08 17:36:00,
2013-01-08 10:41:00,51.8,18.9,29.99,NW,319,4.0,8.0,27,0.00,,---,0.00,VWS V14.00,2013-01-08 17:41:00,
2013-01-08 10:46:00,51.9,19.0,29.99,NW,309,0.0,6.0,27,0.00,,---,0.00,VWS V14.00,2013-01-08 17:46:00,
2013-01-08 10:51:00,51.8,18.9,29.99,NNW,328,1.0,6.0,27,0.00,,---,0.00,VWS V14.00,2013-01-08 17:51:00,
2013-01-08 10:56:00,51.8,18.9,29.99,NW,310,1.0,5.0,27,0.00,,---,0.00,VWS V14.00,2013-01-08 17:56:00,
2013-01-08 11:01:00,51.9,19.8,29.99,North,360,0.0,5.0,28,0.00,,---,0.00,VWS V14.00,2013-01-08 18:01:00,
2013-01-08 11:06:00,51.7,19.7,30.00,SSE,158,0.0,2.0,28,0.00,,---,0.00,VWS V14.00,2013-01-08 18:06:00,
2013-01-08 11:12:00,51.8,19.8,30.00,NE,36,1.0,3.0,28,0.00,,---,0.00,VWS V14.00,2013-01-08 18:12:00,
2013-01-08 11:17:00,51.7,19.7,30.00,NNE,25,4.0,4.0,28,0.00,,---,0.00,VWS V14.00,2013-01-08 18:17:00,
2013-01-08 11:22:00,51.8,19.8,30.00,NNE,29,2.0,7.0,28,0.00,,---,0.00,VWS V14.00,2013-01-08 18:22:00,
2013-01-08 11:27:00,51.9,19.8,30.00,NE,42,4.0,6.0,28,0.00,,---,0.00,VWS V14.00,2013-01-08 18:27:00,
2013-01-08 11:32:00,52.0,19.9,30.00,NNE,28,0.0,5.0,28,0.00,,---,0.00,VWS V14.00,2013-01-08 18:32:00,
2013-01-08 11:37:00,51.9,19.8,30.00,WNW,302,2.0,6.0,28,0.00,,---,0.00,VWS V14.00,2013-01-08 18:37:00,
2013-01-08 11:42:00,51.9,19.8,30.00,North,360,0.0,2.0,28,0.00,,---,0.00,VWS V14.00,2013-01-08 18:42:00,
2013-01-08 11:48:00,52.3,20.2,30.00,North,360,0.0,2.0,28,0.00,,---,0.00,VWS V14.00,2013-01-08 18:48:00,
2013-01-08 11:53:00,52.4,20.3,30.00,SSE,165,0.0,0.0,28,0.00,,---,0.00,VWS V14.00,2013-01-08 18:53:00,
2013-01-08 11:59:00,52.3,21.0,30.00,NNW,331,3.0,4.0,29,0.00,,---,0.00,VWS V14.00,2013-01-08 18:59:00,
2013-01-08 12:04:00,52.2,20.9,30.00,North,360,0.0,1.0,29,0.00,,---,0.00,VWS V14.00,2013-01-08 19:04:00,
2013-01-08 12:09:00,52.0,20.8,30.00,NW,325,1.0,4.0,29,0.00,,---,0.00,VWS V14.00,2013-01-08 19:09:00,
2013-01-08 12:15:00,52.2,20.9,29.99,NNE,28,0.0,1.0,29,0.00,,---,0.00,VWS V14.00,2013-01-08 19:15:00,
2013-01-08 12:20:00,52.8,21.4,30.00,NE,51,0.0,2.0,29,0.00,,---,0.00,VWS V14.00,2013-01-08 19:20:00,
2013-01-08 12:26:00,53.0,20.8,30.00,NE,37,1.0,2.0,28,0.00,,---,0.00,VWS V14.00,2013-01-08 19:26:00,
2013-01-08 12:31:00,53.1,21.7,30.00,NNW,341,2.0,4.0,29,0.00,,---,0.00,VWS V14.00,2013-01-08 19:31:00,
2013-01-08 12:36:00,52.9,21.5,30.01,North,11,0.0,2.0,29,0.00,,---,0.00,VWS V14.00,2013-01-08 19:36:00,
2013-01-08 12:42:00,52.8,20.6,30.01,North,360,0.0,0.0,28,0.00,,---,0.00,VWS V14.00,2013-01-08 19:42:00,
2013-01-08 12:47:00,53.0,21.6,30.01,NNW,346,0.0,2.0,29,0.00,,---,0.00,VWS V14.00,2013-01-08 19:47:00,
2013-01-08 12:52:00,52.8,21.4,30.01,SW,227,0.0,2.0,29,0.00,,---,0.00,VWS V14.00,2013-01-08 19:52:00,
2013-01-08 12:58:00,52.9,21.5,30.01,South,173,0.0,4.0,29,0.00,,---,0.00,VWS V14.00,2013-01-08 19:58:00,
2013-01-08 13:03:00,52.9,21.5,29.99,North,5,4.0,4.0,29,0.00,,---,0.00,VWS V14.00,2013-01-08 20:03:00,
2013-01-08 13:08:00,52.5,21.2,29.99,North,355,0.0,3.0,29,0.00,,---,0.00,VWS V14.00,2013-01-08 20:08:00,
2013-01-08 13:14:00,52.7,21.4,29.99,SSW,209,0.0,2.0,29,0.00,,---,0.00,VWS V14.00,2013-01-08 20:14:00,
2013-01-08 13:19:00,52.6,20.4,29.99,SSE,163,0.0,2.0,28,0.00,,---,0.00,VWS V14.00,2013-01-08 20:19:00,
2013-01-08 13:24:00,52.3,21.0,30.00,SSE,163,0.0,1.0,29,0.00,,---,0.00,VWS V14.00,2013-01-08 20:24:00,
2013-01-08 13:29:00,52.3,21.0,30.01,North,5,1.0,5.0,29,0.00,,---,0.00,VWS V14.00,2013-01-08 20:29:00,
2013-01-08 13:34:00,52.2,20.9,30.01,North,11,1.0,1.0,29,0.00,,---,0.00,VWS V14.00,2013-01-08 20:34:00,
2013-01-08 13:39:00,52.1,20.8,30.01,North,355,1.0,2.0,29,0.00,,---,0.00,VWS V14.00,2013-01-08 20:39:00,
2013-01-08 13:44:00,52.1,20.0,30.01,NNW,327,0.0,1.0,28,0.00,,---,0.00,VWS V14.00,2013-01-08 20:44:00,
2013-01-08 13:49:00,52.3,21.0,30.02,NNW,329,0.0,2.0,29,0.00,,---,0.00,VWS V14.00,2013-01-08 20:49:00,
2013-01-08 13:54:00,52.3,21.0,30.02,NNE,23,1.0,4.0,29,0.00,,---,0.00,VWS V14.00,2013-01-08 20:54:00,
2013-01-08 13:59:00,52.2,20.9,30.02,NNE,23,1.0,2.0,29,0.00,,---,0.00,VWS V14.00,2013-01-08 20:59:00,
2013-01-08 14:04:00,52.1,21.6,30.00,NNW,333,4.0,4.0,30,0.00,,---,0.00,VWS V14.00,2013-01-08 21:04:00,
2013-01-08 14:09:00,52.0,21.5,30.00,NNW,333,0.0,1.0,30,0.00,,---,0.00,VWS V14.00,2013-01-08 21:09:00,
2013-01-08 14:14:00,51.9,20.7,30.01,NE,34,1.0,2.0,29,0.00,,---,0.00,VWS V14.00,2013-01-08 21:14:00,
2013-01-08 14:19:00,52.0,20.8,30.01,NNE,24,2.0,3.0,29,0.00,,---,0.00,VWS V14.00,2013-01-08 21:19:00,
2013-01-08 14:24:00,51.9,20.7,30.01,NNE,24,0.0,3.0,29,0.00,,---,0.00,VWS V14.00,2013-01-08 21:24:00,
2013-01-08 14:29:00,51.7,20.5,30.02,NNE,24,0.0,0.0,29,0.00,,---,0.00,VWS V14.00,2013-01-08 21:29:00,
2013-01-08 14:34:00,51.7,20.5,30.02,NNE,19,0.0,1.0,29,0.00,,---,0.00,VWS V14.00,2013-01-08 21:34:00,
2013-01-08 14:39:00,51.6,20.4,30.03,NNE,18,0.0,0.0,29,0.00,,---,0.00,VWS V14.00,2013-01-08 21:39:00,
2013-01-08 14:44:00,51.5,20.3,30.03,NNE,17,0.0,2.0,29,0.00,,---,0.00,VWS V14.00,2013-01-08 21:44:00,
2013-01-08 14:49:00,51.5,20.3,30.03,NE,49,0.0,0.0,29,0.00,,---,0.00,VWS V14.00,2013-01-08 21:49:00,
2013-01-08 14:54:00,51.5,20.3,30.05,WNW,290,0.0,1.0,29,0.00,,---,0.00,VWS V14.00,2013-01-08 21:54:00,
2013-01-08 14:59:00,51.8,19.8,30.04,NNW,337,0.0,4.0,28,0.00,,---,0.00,VWS V14.00,2013-01-08 21:59:00,
2013-01-08 15:04:00,51.8,19.8,30.03,NNW,338,0.0,4.0,28,0.00,,---,0.00,VWS V14.00,2013-01-08 22:04:00,
2013-01-08 15:09:00,51.8,19.8,30.03,NNW,344,0.0,2.0,28,0.00,,---,0.00,VWS V14.00,2013-01-08 22:09:00,
2013-01-08 15:14:00,52.0,19.9,30.04,NNW,344,0.0,1.0,28,0.00,,---,0.00,VWS V14.00,2013-01-08 22:14:00,
2013-01-08 15:19:00,52.0,19.9,30.04,NNE,22,3.0,4.0,28,0.00,,---,0.00,VWS V14.00,2013-01-08 22:19:00,
2013-01-08 15:24:00,51.9,19.8,30.04,NNE,21,0.0,2.0,28,0.00,,---,0.00,VWS V14.00,2013-01-08 22:24:00,
2013-01-08 15:29:00,51.8,19.8,30.05,NNE,21,0.0,0.0,28,0.00,,---,0.00,VWS V14.00,2013-01-08 22:29:00,
2013-01-08 15:34:00,51.5,19.5,30.05,NNE,21,1.0,1.0,28,0.00,,---,0.00,VWS V14.00,2013-01-08 22:34:00,
2013-01-08 15:39:00,51.3,20.1,30.06,NNE,21,0.0,0.0,29,0.00,,---,0.00,VWS V14.00,2013-01-08 22:39:00,
2013-01-08 15:44:00,50.9,19.8,30.07,NNE,21,0.0,2.0,29,0.00,,---,0.00,VWS V14.00,2013-01-08 22:44:00,
2013-01-08 15:49:00,50.5,19.5,30.07,NNE,21,0.0,1.0,29,0.00,,---,0.00,VWS V14.00,2013-01-08 22:49:00,
2013-01-08 15:54:00,50.2,19.2,30.08,NNE,21,0.0,2.0,29,0.00,,---,0.00,VWS V14.00,2013-01-08 22:54:00,
2013-01-08 15:59:00,49.6,19.5,30.08,NNE,21,2.0,2.0,30,0.00,,---,0.00,VWS V14.00,2013-01-08 22:59:00,
2013-01-08 16:04:00,49.2,19.1,30.10,North,351,3.0,6.0,30,0.00,,---,0.00,VWS V14.00,2013-01-08 23:04:00,
2013-01-08 16:09:00,49.0,18.9,30.10,North,360,1.0,3.0,30,0.00,,---,0.00,VWS V14.00,2013-01-08 23:09:00,
2013-01-08 16:14:00,48.8,18.8,30.10,NNE,30,0.0,2.0,30,0.00,,---,0.00,VWS V14.00,2013-01-08 23:14:00,
2013-01-08 16:19:00,48.5,19.3,30.10,NNE,28,2.0,2.0,31,0.00,,---,0.00,VWS V14.00,2013-01-08 23:19:00,
2013-01-08 16:24:00,48.1,18.9,30.12,NNE,28,0.0,0.0,31,0.00,,---,0.00,VWS V14.00,2013-01-08 23:24:00,
2013-01-08 16:29:00,47.5,19.1,30.12,NNE,28,0.0,0.0,32,0.00,,---,0.00,VWS V14.00,2013-01-08 23:29:00,
2013-01-08 16:34:00,46.5,19.0,30.13,NNE,28,0.0,0.0,33,0.00,,---,0.00,VWS V14.00,2013-01-08 23:34:00,
2013-01-08 16:39:00,45.7,19.0,30.15,NNE,28,0.0,0.0,34,0.00,,---,0.00,VWS V14.00,2013-01-08 23:39:00,
2013-01-08 16:44:00,45.3,18.6,30.15,NNE,28,0.0,0.0,34,0.00,,---,0.00,VWS V14.00,2013-01-08 23:44:00,
2013-01-08 16:49:00,44.8,18.8,30.15,NNE,28,0.0,0.0,35,0.00,,---,0.00,VWS V14.00,2013-01-08 23:49:00,
2013-01-08 16:54:00,44.3,18.4,30.17,NNE,28,0.0,0.0,35,0.00,,---,0.00,VWS V14.00,2013-01-08 23:54:00,
2013-01-08 16:59:00,43.9,18.7,30.17,NNE,28,0.0,0.0,36,0.00,,---,0.00,VWS V14.00,2013-01-08 23:59:00,
2013-01-08 17:04:00,43.7,18.5,30.13,NNE,28,0.0,0.0,36,0.00,,---,0.00,VWS V14.00,2013-01-09 00:04:00,
2013-01-08 17:09:00,43.7,19.1,30.14,NNE,28,0.0,0.0,37,0.00,,---,0.00,VWS V14.00,2013-01-09 00:09:00,
2013-01-08 17:14:00,43.5,19.0,30.15,NNE,28,0.0,0.0,37,0.00,,---,0.00,VWS V14.00,2013-01-09 00:14:00,
2013-01-08 17:19:00,42.9,19.1,30.15,NNE,28,0.0,0.0,38,0.00,,---,0.00,VWS V14.00,2013-01-09 00:19:00,
2013-01-08 17:24:00,42.4,18.6,30.15,East,79,0.0,2.0,38,0.00,,---,0.00,VWS V14.00,2013-01-09 00:24:00,
2013-01-08 17:29:00,42.2,19.0,30.16,East,80,0.0,1.0,39,0.00,,---,0.00,VWS V14.00,2013-01-09 00:29:00,
2013-01-08 17:34:00,42.1,19.0,30.17,East,80,0.0,0.0,39,0.00,,---,0.00,VWS V14.00,2013-01-09 00:34:00,
2013-01-08 17:39:00,42.0,18.9,30.17,East,80,0.0,0.0,39,0.00,,---,0.00,VWS V14.00,2013-01-09 00:39:00,
2013-01-08 17:44:00,41.9,18.8,30.17,East,80,0.0,0.0,39,0.00,,---,0.00,VWS V14.00,2013-01-09 00:44:00,
2013-01-08 17:49:00,41.8,19.3,30.17,East,80,0.0,2.0,40,0.00,,---,0.00,VWS V14.00,2013-01-09 00:49:00,
2013-01-08 17:54:00,41.5,19.0,30.18,East,80,0.0,0.0,40,0.00,,---,0.00,VWS V14.00,2013-01-09 00:54:00,
2013-01-08 17:59:00,41.3,18.8,30.18,East,80,0.0,0.0,40,0.00,,---,0.00,VWS V14.00,2013-01-09 00:59:00,
2013-01-08 18:04:00,41.1,18.6,30.20,East,80,0.0,0.0,40,0.00,,---,0.00,VWS V14.00,2013-01-09 01:04:00,
2013-01-08 18:09:00,40.9,18.5,30.20,East,80,0.0,0.0,40,0.00,,---,0.00,VWS V14.00,2013-01-09 01:09:00,
2013-01-08 18:14:00,40.4,18.6,30.21,East,80,0.0,0.0,41,0.00,,---,0.00,VWS V14.00,2013-01-09 01:14:00,
2013-01-08 18:19:00,40.0,18.8,30.21,East,80,0.0,0.0,42,0.00,,---,0.00,VWS V14.00,2013-01-09 01:19:00,
2013-01-08 18:24:00,39.8,18.6,30.21,East,80,0.0,0.0,42,0.00,,---,0.00,VWS V14.00,2013-01-09 01:24:00,
2013-01-08 18:29:00,39.7,18.5,30.21,East,80,0.0,0.0,42,0.00,,---,0.00,VWS V14.00,2013-01-09 01:29:00,
2013-01-08 18:34:00,39.6,18.4,30.21,East,80,0.0,0.0,42,0.00,,---,0.00,VWS V14.00,2013-01-09 01:34:00,
2013-01-08 18:39:00,39.3,18.1,30.22,East,80,0.0,0.0,42,0.00,,---,0.00,VWS V14.00,2013-01-09 01:39:00,
2013-01-08 18:44:00,39.1,18.0,30.22,East,80,0.0,0.0,42,0.00,,---,0.00,VWS V14.00,2013-01-09 01:44:00,
2013-01-08 18:49:00,38.6,18.6,30.22,East,80,0.0,0.0,44,0.00,,---,0.00,VWS V14.00,2013-01-09 01:49:00,
2013-01-08 18:54:00,37.8,18.4,30.22,East,80,0.0,0.0,45,0.00,,---,0.00,VWS V14.00,2013-01-09 01:54:00,
2013-01-08 18:59:00,37.4,18.5,30.24,East,80,0.0,0.0,46,0.00,,---,0.00,VWS V14.00,2013-01-09 01:59:00,
2013-01-08 19:04:00,37.0,18.2,30.24,East,80,0.0,0.0,46,0.00,,---,0.00,VWS V14.00,2013-01-09 02:04:00,
2013-01-08 19:09:00,36.7,18.4,30.24,East,80,0.0,0.0,47,0.00,,---,0.00,VWS V14.00,2013-01-09 02:09:00,
2013-01-08 19:14:00,36.6,18.3,30.24,East,80,0.0,0.0,47,0.00,,---,0.00,VWS V14.00,2013-01-09 02:14:00,
2013-01-08 19:19:00,36.5,18.2,30.24,East,80,0.0,0.0,47,0.00,,---,0.00,VWS V14.00,2013-01-09 02:19:00,
2013-01-08 19:24:00,36.4,18.1,30.24,East,80,0.0,0.0,47,0.00,,---,0.00,VWS V14.00,2013-01-09 02:24:00,
2013-01-08 19:29:00,36.3,18.0,30.24,East,80,0.0,0.0,47,0.00,,---,0.00,VWS V14.00,2013-01-09 02:29:00,
2013-01-08 19:35:00,36.0,18.2,30.24,East,80,0.0,0.0,48,0.00,,---,0.00,VWS V14.00,2013-01-09 02:35:00,
2013-01-08 19:40:00,35.8,18.0,30.25,East,80,0.0,0.0,48,0.00,,---,0.00,VWS V14.00,2013-01-09 02:40:00,
2013-01-08 19:45:00,35.6,17.9,30.25,East,80,0.0,0.0,48,0.00,,---,0.00,VWS V14.00,2013-01-09 02:45:00,
2013-01-08 19:50:00,35.5,18.2,30.25,East,80,0.0,0.0,49,0.00,,---,0.00,VWS V14.00,2013-01-09 02:50:00,
2013-01-08 19:55:00,35.3,18.1,30.27,East,80,0.0,0.0,49,0.00,,---,0.00,VWS V14.00,2013-01-09 02:55:00,
2013-01-08 20:00:00,35.1,17.9,30.27,East,80,0.0,0.0,49,0.00,,---,0.00,VWS V14.00,2013-01-09 03:00:00,
2013-01-08 20:05:00,34.8,18.5,30.23,East,80,0.0,1.0,51,0.00,,---,0.00,VWS V14.00,2013-01-09 03:05:00,
2013-01-08 20:10:00,34.4,18.6,30.23,East,80,0.0,0.0,52,0.00,,---,0.00,VWS V14.00,2013-01-09 03:10:00,
2013-01-08 20:16:00,34.3,19.0,30.24,East,80,0.0,1.0,53,0.00,,---,0.00,VWS V14.00,2013-01-09 03:16:00,
2013-01-08 20:21:00,34.1,18.8,30.24,East,80,0.0,0.0,53,0.00,,---,0.00,VWS V14.00,2013-01-09 03:21:00,
2013-01-08 20:26:00,33.9,19.0,30.25,East,80,0.0,0.0,54,0.00,,---,0.00,VWS V14.00,2013-01-09 03:26:00,
2013-01-08 20:31:00,33.9,19.0,30.25,East,80,0.0,0.0,54,0.00,,---,0.00,VWS V14.00,2013-01-09 03:31:00,
2013-01-08 20:36:00,33.7,18.8,30.26,East,80,0.0,0.0,54,0.00,,---,0.00,VWS V14.00,2013-01-09 03:36:00,
2013-01-08 20:41:00,33.6,19.2,30.26,East,80,0.0,1.0,55,0.00,,---,0.00,VWS V14.00,2013-01-09 03:41:00,
2013-01-08 20:46:00,33.5,19.5,30.26,East,80,0.0,2.0,56,0.00,,---,0.00,VWS V14.00,2013-01-09 03:46:00,
2013-01-08 20:51:00,33.4,19.4,30.28,East,80,0.0,0.0,56,0.00,,---,0.00,VWS V14.00,2013-01-09 03:51:00,
2013-01-08 20:56:00,33.3,19.3,30.28,East,80,0.0,0.0,56,0.00,,---,0.00,VWS V14.00,2013-01-09 03:56:00,
2013-01-08 21:01:00,33.2,19.6,30.29,East,80,0.0,0.0,57,0.00,,---,0.00,VWS V14.00,2013-01-09 04:01:00,
2013-01-08 21:06:00,33.2,19.2,30.24,East,80,0.0,0.0,56,0.00,,---,0.00,VWS V14.00,2013-01-09 04:06:00,
2013-01-08 21:11:00,33.1,19.1,30.24,East,80,0.0,0.0,56,0.00,,---,0.00,VWS V14.00,2013-01-09 04:11:00,
2013-01-08 21:16:00,33.0,19.0,30.24,East,80,0.0,0.0,56,0.00,,---,0.00,VWS V14.00,2013-01-09 04:16:00,
2013-01-08 21:21:00,32.9,19.4,30.24,East,80,0.0,2.0,57,0.00,,---,0.00,VWS V14.00,2013-01-09 04:21:00,
2013-01-08 21:26:00,32.9,19.4,30.24,East,80,0.0,1.0,57,0.00,,---,0.00,VWS V14.00,2013-01-09 04:26:00,
2013-01-08 21:31:00,32.8,19.3,30.24,East,80,0.0,0.0,57,0.00,,---,0.00,VWS V14.00,2013-01-09 04:31:00,
2013-01-08 21:36:00,32.7,19.2,30.25,East,80,0.0,0.0,57,0.00,,---,0.00,VWS V14.00,2013-01-09 04:36:00,
2013-01-08 21:41:00,32.6,19.1,30.25,East,80,0.0,0.0,57,0.00,,---,0.00,VWS V14.00,2013-01-09 04:41:00,
2013-01-08 21:46:00,32.5,19.0,30.25,East,80,0.0,0.0,57,0.00,,---,0.00,VWS V14.00,2013-01-09 04:46:00,
2013-01-08 21:51:00,32.4,18.5,30.25,East,80,0.0,0.0,56,0.00,,---,0.00,VWS V14.00,2013-01-09 04:51:00,
2013-01-08 21:56:00,32.3,18.4,30.26,East,80,0.0,0.0,56,0.00,,---,0.00,VWS V14.00,2013-01-09 04:56:00,
2013-01-08 22:00:00,32.1,18.2,30.25,East,80,0.0,0.0,56,0.00,,---,0.00,VWS V14.00,2013-01-09 05:00:00,
2013-01-08 22:01:00,32.1,18.6,30.25,East,80,0.0,0.0,57,0.00,,---,0.00,VWS V14.00,2013-01-09 05:01:00,
2013-01-08 22:02:00,32.1,18.6,30.24,East,80,0.0,0.0,57,0.00,,---,0.00,VWS V14.00,2013-01-09 05:02:00,
2013-01-08 22:03:00,32.0,18.5,30.25,East,80,0.0,0.0,57,0.00,,---,0.00,VWS V14.00,2013-01-09 05:03:00,
2013-01-08 22:08:00,31.8,18.3,30.25,East,80,0.0,0.0,57,0.00,,---,0.00,VWS V14.00,2013-01-09 05:08:00,
2013-01-08 22:13:00,31.6,18.1,30.25,East,80,0.0,0.0,57,0.00,,---,0.00,VWS V14.00,2013-01-09 05:13:00,
2013-01-08 22:18:00,31.4,17.9,30.26,East,80,0.0,0.0,57,0.00,,---,0.00,VWS V14.00,2013-01-09 05:18:00,
2013-01-08 22:23:00,31.1,17.7,30.26,East,80,0.0,0.0,57,0.00,,---,0.00,VWS V14.00,2013-01-09 05:23:00,
2013-01-08 22:28:00,31.0,17.6,30.27,East,80,0.0,0.0,57,0.00,,---,0.00,VWS V14.00,2013-01-09 05:28:00,
2013-01-08 22:33:00,30.6,17.6,30.27,East,80,0.0,1.0,58,0.00,,---,0.00,VWS V14.00,2013-01-09 05:33:00,
2013-01-08 22:38:00,30.3,17.7,30.27,East,80,0.0,0.0,59,0.00,,---,0.00,VWS V14.00,2013-01-09 05:38:00,
2013-01-08 22:43:00,30.2,18.0,30.27,East,80,0.0,0.0,60,0.00,,---,0.00,VWS V14.00,2013-01-09 05:43:00,
2013-01-08 22:48:00,30.1,17.5,30.27,East,80,0.0,0.0,59,0.00,,---,0.00,VWS V14.00,2013-01-09 05:48:00,
2013-01-08 22:53:00,30.0,17.4,30.27,East,80,0.0,0.0,59,0.00,,---,0.00,VWS V14.00,2013-01-09 05:53:00,
2013-01-08 22:58:00,29.9,17.3,30.27,East,80,0.0,1.0,59,0.00,,---,0.00,VWS V14.00,2013-01-09 05:58:00,
2013-01-08 23:03:00,29.9,16.9,30.28,East,80,0.0,0.0,58,0.00,,---,0.00,VWS V14.00,2013-01-09 06:03:00,
2013-01-08 23:08:00,29.9,16.9,30.28,East,80,0.0,0.0,58,0.00,,---,0.00,VWS V14.00,2013-01-09 06:08:00,
2013-01-08 23:13:00,29.9,16.9,30.27,East,80,0.0,0.0,58,0.00,,---,0.00,VWS V14.00,2013-01-09 06:13:00,
2013-01-08 23:18:00,29.8,16.8,30.28,East,80,0.0,0.0,58,0.00,,---,0.00,VWS V14.00,2013-01-09 06:18:00,
2013-01-08 23:24:00,29.8,16.8,30.28,East,80,0.0,0.0,58,0.00,,---,0.00,VWS V14.00,2013-01-09 06:24:00,
2013-01-08 23:29:00,29.7,16.8,30.28,East,80,0.0,1.0,58,0.00,,---,0.00,VWS V14.00,2013-01-09 06:29:00,
2013-01-08 23:34:00,29.6,16.6,30.28,East,80,0.0,0.0,58,0.00,,---,0.00,VWS V14.00,2013-01-09 06:34:00,
2013-01-08 23:39:00,29.6,16.6,30.28,East,80,0.0,0.0,58,0.00,,---,0.00,VWS V14.00,2013-01-09 06:39:00,
2013-01-08 23:44:00,29.5,16.6,30.28,East,80,0.0,0.0,58,0.00,,---,0.00,VWS V14.00,2013-01-09 06:44:00,
2013-01-08 23:49:00,29.4,16.5,30.29,East,80,0.0,0.0,58,0.00,,---,0.00,VWS V14.00,2013-01-09 06:49:00,
2013-01-08 23:54:00,29.3,16.4,30.30,East,80,0.0,0.0,58,0.00,,---,0.00,VWS V14.00,2013-01-09 06:54:00,
2013-01-08 23:59:00,29.2,16.3,30.30,East,80,0.0,0.0,58,0.00,,---,0.00,VWS V14.00,2013-01-09 06:59:00,